Flag for Norway Weather past 2 weeks in Narvik, Norway

Now
19 °F

Overcast.


Feels Like: 11 °F
Forecast: 7 / 12 °F
Wind: 6 mph from North

Location: Evenes

Current Time: Feb 2, 2015 at 2:02:05 AM

Latest Report: Feb 2, 2015 at 1:20 AM


Visibility: N/A

Pressure: 29.39 "Hg

Humidity: 53%

Dew point: 5 °F

Location of NarvikLocation

Historic Weather in Narvik — Graph

°F

Narvik temperature yesterday

Maximum temperature yesterday: 25 °F (at 12:20 AM)
Minimum temperature yesterday: 21 °F (at 8:50 PM)
Average temperature yesterday: 23 °F

Past Weeks' High & Low Weather Summary

 TemperatureHumidityPressure
High41 °F (Jan 26, 11:50 AM)100% (Jan 25, 3:20 AM)30.36 "Hg (Jan 25, 3:20 AM)
Low1 °F (Jan 19, 6:50 PM)42% (Jan 20, 12:50 PM)28.88 "Hg (Jan 28, 5:50 PM)
Average22 °F70%29.64 "Hg
* Reported Jan 18 12:20 AM — Feb 2 12:50 AM, Narvik, Weather by CustomWeather, © 2014

Note: Actual official high and low records may vary slightly from our data, if they occured in-between our weather recording intervals... More about our weather records

Advertising

Narvik weather history for previous 24 hours

 ConditionsComfort  
Time TempWeatherWind HumidityBarometerVisibility
12:50 AM
Feb 2
21 °FPassing clouds.5 mph49%29.39 "HgN/A
12:20 AM21 °FCold.1 mph49%29.39 "HgN/A
11:50 PM
Feb 1
21 °FCold.5 mph49%29.39 "HgN/A
11:20 PM21 °FCold.8 mph49%29.39 "HgN/A
9:50 PM21 °FPassing clouds.7 mph54%29.39 "HgN/A
9:20 PM21 °FClear.3 mph49%29.39 "Hg10 mi
8:50 PM21 °FPassing clouds.9 mph49%29.39 "HgN/A
7:50 PM23 °FClear.16 mph50%29.39 "Hg10 mi
6:50 PM23 °FPassing clouds.18 mph50%29.39 "HgN/A
5:50 PM23 °FPassing clouds.15 mph54%29.39 "HgN/A
4:50 PM23 °FClear.22 mph54%29.39 "Hg10 mi
3:50 PM23 °FPassing clouds.22 mph54%29.39 "HgN/A
2:50 PM23 °FPartly sunny.17 mph50%29.39 "HgN/A
1:50 PM23 °FSunny.25 mph50%29.42 "Hg10 mi
12:50 PM23 °FSunny.21 mph50%29.45 "Hg10 mi
12:20 PM23 °FSunny.22 mph50%29.45 "Hg10 mi
11:50 AM23 °FSunny.21 mph46%29.45 "Hg10 mi
10:50 AM23 °FSunny.18 mph46%29.45 "Hg10 mi
9:50 AM23 °FPassing clouds.16 mph50%29.47 "HgN/A
9:20 AM23 °FPassing clouds.17 mph50%29.47 "HgN/A
8:50 AM23 °FPassing clouds.16 mph54%29.47 "HgN/A
8:20 AM23 °FPassing clouds.12 mph54%29.47 "HgN/A
7:50 AM23 °FCold.20 mph54%29.47 "HgN/A
7:20 AM23 °FPassing clouds.18 mph54%29.47 "HgN/A
6:50 AM25 °FPassing clouds.18 mph54%29.47 "HgN/A
6:20 AM25 °FPassing clouds.21 mph54%29.47 "HgN/A
5:50 AM25 °FPassing clouds.21 mph54%29.50 "HgN/A
5:20 AM25 °FPassing clouds.16 mph54%29.50 "HgN/A
4:50 AM25 °FPassing clouds.14 mph54%29.50 "HgN/A
4:20 AM25 °FPassing clouds.21 mph54%29.50 "HgN/A
3:50 AM25 °FPassing clouds.23 mph54%29.50 "HgN/A
3:20 AM25 °FPassing clouds.20 mph54%29.50 "HgN/A
2:50 AM23 °FPassing clouds.24 mph58%29.50 "HgN/A
2:20 AM23 °FOvercast.24 mph58%29.50 "HgN/A
Weather by CustomWeather, © 2014

See weather overviewHow to use our weather pages